DELTA 1 R/B, 6921

Orbit data source: Space-Track

DELTA 1 R/B, 6921 is space debris in SSO originally from a launch on Tue, 06 Nov 1973 UTC launched from the Air Force Western Test Range (AFWTR). Debris objects in space refer to the collection of defunct objects orbiting the Earth. Examples of debris include non-operational satellites, rocket bodies, and fragments generated from explosions, collisions, or faulty payload assembly.

Loading next visibility...
Identifier
6921, 1973-086B
Orbit
SSO
Country
Flag of USUS
Related business
Manufacturer
Aerojet
Mission
Spacecraft
Bus & Motor
DSV-3E-5, AJ10-118F
Mass
756 kg wet, 756 kg dry
Launch date (UTC)
1973-11-06 (53 years ago)
Launch vehicle
Unknown
Launch site
Air Force Western Test Range (AFWTR)
Object type
Payload
Rocket body
Debris
Shape & HBR
CYL + NOZZLE, 1.1 m
Radar Cross Section
Large (>1 m²)

Expand to show TLE details & history
Last TLE update: 16 hours ago

TLE from 16 hours ago
0 DELTA 1 R/B
1  6921U 73086B   26263.04535463 -.00000044  00000-0  13071-4 0  9996
2  6921 102.3333 293.7167 0014943  97.1841 263.0919 12.37070107402061
Epoch: 2026-09-20T01:05Z
TLE epoch observation values (Epoch: 2026-09-20T01:05:18.640Z)
Latitude
0.00001°
Longitude
-81.55614°
Altitude
1,523.016 km
Speed
7.103 km/s
True Right ascension
19h 34m 52s
True Declination
0° 00' 00"
Sunlit
Object was in daylight at epoch
Visualization orbit readout
Latitude
Unknown
Longitude
Unknown
Altitude
Unknown
Speed
Unknown
Apparent Right ascension
Unknown
Apparent Declination
Unknown
Sunlit
N/A
Visualization observer readout
Local Sidereal Time
09:47:44
Azimuth
Unknown
Elevation
Unknown
Doppler factor
Unknown
Orbital elements
Apogee altitude
1,528.444 km
Perigee altitude
1,504.849 km
Semi-major axis
7,894.783 km
Eccentricity
0.00149
Inclination
102.3333°
RAAN
293.7167°
Arg. of periapsis
97.1841°
True anomaly
262.92195°
Mean anomaly
263.0919°
Eccentric anomaly
263.00692°
Mean motion
3.09409 °/min
Orbital period
116.35 mins
BSTAR
0.000013071
Loading maneuver chart data...
Computing Atmospheric mass density...
Loading historical data...
Loading historical data...
Loading historical data...
Loading historical data...
Loading historical data...
Loading historical data...
Loading historical data...

Documentation

Showing up to 5 results
|